TimeEDT,TemperatureF,Dew PointF,Humidity,Sea Level PressureIn,VisibilityMPH,Wind Direction,Wind SpeedMPH,Gust SpeedMPH,PrecipitationIn,Events,Conditions,WindDirDegrees,DateUTC
12:51 AM,73.9,71.1,91,30.08,9.0,Calm,Calm,-,N/A,,Scattered Clouds,0,2012-09-03 04:51:00
1:40 AM,75.2,71.6,89,30.07,9.0,East,3.5,-,0.00,Rain,Light Rain,90,2012-09-03 05:40:00
1:47 AM,75.2,71.6,89,30.07,9.0,East,4.6,-,0.00,,Overcast,100,2012-09-03 05:47:00
1:51 AM,75.0,72.0,90,30.07,9.0,ESE,3.5,-,0.00,Rain,Light Rain,110,2012-09-03 05:51:00
2:41 AM,73.4,69.8,88,30.07,10.0,SE,6.9,16.1,0.00,,Overcast,140,2012-09-03 06:41:00
2:51 AM,73.0,71.1,93,30.07,6.0,SSE,3.5,-,0.01,Rain,Light Rain,150,2012-09-03 06:51:00
2:54 AM,73.4,71.6,94,30.07,6.0,SSE,3.5,-,0.01,Rain,Light Rain,150,2012-09-03 06:54:00
3:17 AM,73.4,71.6,94,30.07,9.0,ESE,5.8,-,0.01,Rain,Light Rain,110,2012-09-03 07:17:00
3:51 AM,73.9,70.0,87,30.08,10.0,ENE,9.2,-,0.01,Rain,Light Rain,70,2012-09-03 07:51:00
4:51 AM,73.9,71.1,91,30.09,10.0,ENE,6.9,-,0.01,Rain,Light Rain,70,2012-09-03 08:51:00
5:07 AM,73.4,69.8,88,30.09,10.0,ENE,8.1,-,0.00,Rain,Light Rain,70,2012-09-03 09:07:00
5:51 AM,73.0,69.1,87,30.10,10.0,East,10.4,-,0.00,Rain,Light Rain,80,2012-09-03 09:51:00
5:58 AM,73.4,69.8,88,30.10,10.0,East,11.5,17.3,0.00,Rain,Light Rain,90,2012-09-03 09:58:00
6:32 AM,71.6,69.8,94,30.11,7.0,NE,9.2,-,0.00,Rain,Light Rain,40,2012-09-03 10:32:00
6:51 AM,72.0,69.1,91,30.12,6.0,NE,11.5,17.3,0.01,Rain,Light Rain,50,2012-09-03 10:51:00
7:31 AM,71.6,69.8,94,30.12,7.0,ENE,9.2,-,0.03,Rain,Light Rain,70,2012-09-03 11:31:00
7:51 AM,72.0,70.0,93,30.13,8.0,East,8.1,-,0.04,Rain,Light Rain,80,2012-09-03 11:51:00
8:51 AM,73.4,69.8,88,30.14,10.0,East,6.9,-,N/A,,Overcast,90,2012-09-03 12:51:00
8:58 AM,73.4,69.8,88,30.14,10.0,East,6.9,-,N/A,,Overcast,90,2012-09-03 12:58:00
9:07 AM,73.4,69.8,88,30.14,10.0,East,12.7,16.1,N/A,,Overcast,90,2012-09-03 13:07:00
9:51 AM,73.0,69.1,87,30.15,10.0,East,8.1,-,N/A,,Overcast,90,2012-09-03 13:51:00
10:51 AM,73.9,68.0,82,30.15,10.0,East,11.5,18.4,N/A,,Overcast,90,2012-09-03 14:51:00
11:51 AM,77.0,63.0,62,30.15,10.0,ESE,13.8,19.6,N/A,,Overcast,120,2012-09-03 15:51:00
12:51 PM,77.0,64.0,64,30.15,10.0,East,10.4,19.6,N/A,,Overcast,90,2012-09-03 16:51:00
1:51 PM,75.9,64.0,67,30.14,10.0,East,10.4,17.3,N/A,,Overcast,100,2012-09-03 17:51:00
2:51 PM,77.0,64.0,64,30.13,10.0,ESE,10.4,20.7,N/A,,Overcast,120,2012-09-03 18:51:00
3:51 PM,75.9,64.0,67,30.12,10.0,ESE,12.7,19.6,N/A,,Overcast,110,2012-09-03 19:51:00
4:51 PM,75.0,64.9,71,30.12,10.0,ESE,11.5,19.6,N/A,,Overcast,110,2012-09-03 20:51:00
5:51 PM,73.9,66.0,76,30.12,10.0,East,11.5,17.3,N/A,,Overcast,90,2012-09-03 21:51:00
6:51 PM,73.4,66.2,78,30.11,6.0,East,11.5,20.7,N/A,,Overcast,100,2012-09-03 22:51:00
7:51 PM,73.0,66.9,81,30.09,8.0,East,11.5,-,0.00,Rain,Light Rain,90,2012-09-03 23:51:00
8:51 PM,72.0,66.9,84,30.09,10.0,ESE,5.8,-,0.00,,Overcast,110,2012-09-04 00:51:00
9:22 PM,71.6,68.0,88,30.10,10.0,ESE,6.9,-,N/A,,Overcast,110,2012-09-04 01:22:00
9:51 PM,72.0,68.0,87,30.11,10.0,ESE,8.1,-,N/A,,Overcast,110,2012-09-04 01:51:00
10:47 PM,71.6,68.0,88,30.10,10.0,ENE,5.8,-,0.00,,Overcast,70,2012-09-04 02:47:00
10:51 PM,72.0,68.0,87,30.10,10.0,East,3.5,-,0.00,,Overcast,80,2012-09-04 02:51:00
11:51 PM,73.0,68.0,84,30.10,10.0,ENE,5.8,-,N/A,,Overcast,60,2012-09-04 03:51:00